GW2747 Weather Reports


time (UTC)temp
C
wind
direction
speed
KPH
gust
KPH
rain 1hr
cm
rain 24hr
cm
rain mn
cm
humidity
%
barometer
mb
20260510083204 16 193 0.0 0.0 0.00 0.00 0.00 71 1016.2
20260510082704 16 193 0.0 0.0 0.00 0.00 0.00 70 1016.2
20260510081704 16 193 0.0 0.0 0.00 0.00 0.00 68 1016.0
20260510081204 16 193 0.0 0.0 0.00 0.00 0.00 68 1016.3
20260510080704 16 193 0.0 0.0 0.00 0.00 0.00 67 1016.0
20260510080204 16 193 0.0 0.0 0.00 0.00 0.00 68 1016.1
20260510075704 17 193 0.0 0.0 0.00 0.00 0.00 67 1015.9
20260510074704 17 193 0.0 0.0 0.00 0.00 0.00 66 1015.9
20260510073704 17 191 0.0 1.6 0.00 0.00 0.00 67 1015.6
20260510073205 17 190 1.6 1.6 0.00 0.00 0.00 66 1015.6
20260510072706 17 189 1.6 3.2 0.00 0.00 0.00 65 1015.7
20260510072204 18 187 1.6 3.2 0.00 0.00 0.00 64 1015.6
20260510071704 18 181 3.2 3.2 0.00 0.00 0.00 63 1015.7
20260510071204 18 180 3.2 8.0 0.00 0.00 0.00 63 1015.6
20260510070204 18 177 1.6 3.2 0.00 0.00 0.00 63 1015.5
20260510065704 18 158 1.6 3.2 0.00 0.00 0.00 61 1015.7
20260510065204 18 185 1.6 8.0 0.00 0.00 0.00 61 1015.6
20260510064705 19 189 1.6 4.8 0.00 0.00 0.00 60 1015.8
20260510064204 18 207 1.6 3.2 0.00 0.00 0.00 61 1015.8
20260510063704 18 193 0.0 3.2 0.00 0.00 0.00 61 1015.8
20260510063204 18 211 0.0 0.0 0.00 0.00 0.00 61 1015.7
20260510062705 18 211 0.0 0.0 0.00 0.00 0.00 61 1015.7
20260510061704 17 197 0.0 1.6 0.00 0.00 0.00 61 1015.9
20260510061204 18 196 1.6 3.2 0.00 0.00 0.00 62 1015.6
20260510060704 18 195 1.6 8.0 0.00 0.00 0.00 61 1015.8
20260510060204 18 172 4.8 9.7 0.00 0.00 0.00 61 1015.6
20260510054704 18 189 1.6 3.2 0.00 0.00 0.00 60 1015.6
20260510054204 18 189 1.6 8.0 0.00 0.00 0.00 61 1015.6
20260510053705 18 208 4.8 11.3 0.00 0.00 0.00 61 1015.6
20260510053204 17 188 3.2 11.3 0.00 0.00 0.00 63 1015.6
20260510052704 18 151 3.2 4.8 0.00 0.00 0.00 64 1015.7
20260510052205 18 149 1.6 9.7 0.00 0.00 0.00 63 1015.7
20260510051205 17 157 1.6 8.0 0.00 0.00 0.00 63 1015.8
20260510050704 18 142 4.8 9.7 0.00 0.00 0.00 63 1015.8
20260510050205 18 178 1.6 4.8 0.00 0.00 0.00 63 1015.8
20260510045204 18 130 3.2 9.7 0.00 0.00 0.00 64 1015.7
20260510044704 17 161 1.6 8.0 0.00 0.00 0.00 63 1015.7
20260510044205 17 87 4.8 9.7 0.00 0.00 0.00 63 1015.7
20260510043705 17 148 1.6 9.7 0.00 0.00 0.00 64 1015.7
20260510043204 17 142 3.2 9.7 0.00 0.00 0.00 64 1015.9
20260510042704 18 163 4.8 11.3 0.00 0.00 0.00 63 1016.0
20260510041704 18 252 3.2 11.3 0.00 0.00 0.00 63 1015.9
20260510041204 17 147 3.2 14.5 0.00 0.00 0.00 62 1015.8
20260510040705 18 146 4.8 12.9 0.00 0.00 0.00 62 1015.8
20260510040204 17 112 4.8 9.7 0.00 0.00 0.00 63 1016.0
20260510035204 17 129 3.2 9.7 0.00 0.00 0.00 64 1016.0
20260510034204 17 191 1.6 8.0 0.00 0.00 0.00 64 1016.2
20260510033705 17 201 1.6 8.0 0.00 0.00 0.00 67 1015.9
20260510033204 17 196 1.6 8.0 0.00 0.00 0.00 68 1016.2
20260510032705 17 209 0.0 4.8 0.00 0.00 0.00 68 1016.4
20260510032204 17 197 3.2 8.0 0.00 0.00 0.00 69 1016.4
20260510031704 17 198 1.6 8.0 0.00 0.00 0.00 69 1016.4
20260510031204 17 176 3.2 9.7 0.00 0.00 0.00 67 1016.4
20260510030705 17 234 3.2 14.5 0.00 0.00 0.00 67 1016.4
20260510030204 17 208 3.2 11.3 0.00 0.00 0.00 67 1016.5
20260510025704 17 199 1.6 11.3 0.00 0.00 0.00 68 1016.4
20260510025204 16 199 1.6 4.8 0.00 0.00 0.00 72 1016.6
20260510024705 17 164 1.6 9.7 0.00 0.00 0.00 71 1016.5
20260510024204 16 110 3.2 8.0 0.00 0.00 0.00 71 1016.7
20260510023704 17 236 4.8 12.9 0.00 0.00 0.00 71 1016.8
20260510023205 16 246 8.0 12.9 0.00 0.00 0.00 73 1016.8
20260510022205 16 213 4.8 9.7 0.00 0.00 0.00 73 1017.0
20260510021705 15 229 1.6 4.8 0.00 0.00 0.00 74 1017.0
20260510020704 15 192 3.2 9.7 0.00 0.00 0.00 76 1017.3
20260510015205 15 220 3.2 4.8 0.00 0.00 0.00 78 1017.5
20260510014705 15 217 4.8 8.0 0.00 0.00 0.00 79 1017.4
20260510014205 15 157 1.6 8.0 0.00 0.00 0.00 79 1017.6
20260510013704 14 180 3.2 4.8 0.00 0.00 0.00 81 1017.7
20260510013204 14 169 3.2 4.8 0.00 0.00 0.00 81 1017.6
20260510012705 14 163 1.6 4.8 0.00 0.03 0.00 82 1017.6
20260510012205 13 197 1.6 3.2 0.00 0.03 0.00 83 1017.8
20260510011705 13 179 3.2 4.8 0.00 0.03 0.00 84 1017.8
20260510011205 13 144 1.6 4.8 0.00 0.03 0.00 85 1017.9
20260510010704 13 184 3.2 4.8 0.00 0.03 0.00 85 1017.7
20260510010204 13 205 1.6 3.2 0.00 0.03 0.00 86 1017.9
20260510005703 13 163 1.6 8.0 0.00 0.03 0.00 87 1017.8
20260510005204 13 171 1.6 4.8 0.00 0.03 0.00 89 1017.9
20260510004704 12 179 1.6 3.2 0.00 0.03 0.00 91 1017.7
20260510004204 12 180 0.0 9.7 0.00 0.03 0.00 92 1017.9
20260510003704 12 183 1.6 9.7 0.00 0.03 0.00 93 1017.9
20260510003204 12 176 3.2 9.7 0.00 0.03 0.00 94 1018.0
20260510002704 12 192 1.6 8.0 0.00 0.03 0.00 95 1017.9
20260510002204 12 189 0.0 0.0 0.00 0.03 0.00 96 1018.0
20260510001704 11 203 0.0 0.0 0.00 0.03 0.00 97 1018.1
20260510001204 11 196 0.0 0.0 0.00 0.03 0.00 97 1017.9
20260510000705 11 206 0.0 4.8 0.00 0.03 0.00 98 1017.9
20260510000204 11 191 1.6 9.7 0.00 0.03 0.00 98 1018.1
20260509235704 11 188 1.6 8.0 0.00 0.03 0.00 98 1018.0
20260509235204 11 169 3.2 11.3 0.00 0.05 0.00 99 1018.2
20260509234704 11 159 6.4 12.9 0.00 0.05 0.00 99 1018.1
20260509234205 11 180 3.2 9.7 0.00 0.05 0.00 99 1018.1
20260509233704 11 172 4.8 8.0 0.00 0.05 0.00 99 1018.1
20260509233205 11 196 3.2 9.7 0.00 0.05 0.00 99 1018.0
20260509232704 11 178 3.2 9.7 0.00 0.05 0.00 99 1018.0
20260509232204 11 192 4.8 9.7 0.00 0.05 0.00 99 1018.1
20260509231704 11 176 3.2 11.3 0.00 0.05 0.00 99 1018.1
20260509231204 11 179 0.0 0.0 0.00 0.05 0.00 99 1018.0
20260509230704 11 188 0.0 0.0 0.00 0.05 0.00 99 1018.2
20260509230204 11 191 0.0 0.0 0.00 0.05 0.00 99 1018.0
20260509225705 11 177 0.0 0.0 0.00 0.05 0.00 99 1018.0
20260509225205 11 186 0.0 0.0 0.00 0.05 0.00 99 1018.1
20260509224705 11 183 0.0 0.0 0.00 0.05 0.00 99 1018.0
20260509224205 11 189 0.0 0.0 0.00 0.05 0.00 99 1018.0
20260509223704 11 184 0.0 0.0 0.00 0.05 0.00 99 1018.0
20260509223204 11 174 1.6 4.8 0.00 0.05 0.00 99 1017.9
20260509222704 11 164 4.8 9.7 0.00 0.05 0.00 99 1017.6
20260509222204 11 179 3.2 8.0 0.00 0.05 0.00 99 1017.6
20260509221704 11 173 4.8 9.7 0.00 0.05 0.00 99 1017.7
20260509220705 11 207 0.0 0.0 0.00 0.05 0.00 99 1017.5
20260509220205 11 204 1.6 3.2 0.00 0.08 0.00 99 1017.6
20260509215704 10 209 0.0 0.0 0.00 0.08 0.00 99 1017.3
20260509215205 10 209 0.0 0.0 0.00 0.08 0.00 99 1017.5
20260509214704 10 209 0.0 0.0 0.00 0.08 0.00 99 1017.4
20260509214204 10 209 0.0 0.0 0.00 0.08 0.00 99 1017.4
20260509213205 10 210 0.0 0.0 0.00 0.08 0.00 99 1017.3
20260509212704 10 210 0.0 0.0 0.00 0.08 0.00 99 1017.1
20260509212204 10 210 0.0 0.0 0.00 0.10 0.00 99 1017.2
20260509211204 10 210 0.0 0.0 0.00 0.13 0.00 99 1017.0
20260509210704 10 210 0.0 0.0 0.00 0.13 0.00 99 1016.9
20260509210204 10 210 0.0 0.0 0.00 0.13 0.00 99 1016.8
20260509205704 10 210 0.0 0.0 0.00 0.13 0.00 99 1016.9
20260509205206 9 210 0.0 0.0 0.00 0.13 0.00 99 1016.9
20260509204204 9 209 0.0 0.0 0.00 0.13 0.00 99 1016.9
20260509203704 9 211 0.0 0.0 0.00 0.13 0.00 99 1016.7
20260509203205 9 213 0.0 0.0 0.00 0.13 0.00 99 1016.6
20260509202705 9 215 0.0 0.0 0.00 0.15 0.00 99 1016.6
20260509202205 9 216 0.0 0.0 0.00 0.15 0.00 99 1016.5
20260509201704 9 198 0.0 0.0 0.00 0.15 0.00 99 1016.4
20260509200704 9 196 0.0 0.0 0.00 0.15 0.00 99 1016.5
20260509200205 9 196 0.0 0.0 0.00 0.15 0.00 99 1016.3
20260509195705 9 196 0.0 0.0 0.00 0.15 0.00 99 1016.4
20260509195205 9 196 0.0 0.0 0.00 0.15 0.00 99 1016.3
20260509194704 8 196 0.0 0.0 0.00 0.15 0.00 99 1016.3
20260509194205 8 196 0.0 0.0 0.00 0.15 0.00 99 1016.2
20260509193704 8 196 0.0 0.0 0.00 0.15 0.00 99 1016.3
20260509193204 8 196 0.0 0.0 0.00 0.15 0.00 99 1016.3
20260509192205 8 196 0.0 0.0 0.00 0.15 0.00 99 1016.0
20260509191704 8 196 0.0 0.0 0.00 0.15 0.00 99 1016.2
20260509191204 7 196 0.0 0.0 0.00 0.15 0.00 99 1016.2
20260509190706 7 196 0.0 0.0 0.00 0.15 0.00 99 1016.0
20260509190204 7 196 0.0 0.0 0.00 0.15 0.00 99 1016.1
20260509185205 7 195 0.0 0.0 0.00 0.15 0.00 99 1015.7
20260509184205 7 195 0.0 0.0 0.00 0.15 0.00 99 1015.9
20260509183705 7 195 0.0 0.0 0.00 0.15 0.00 99 1015.6
20260509183205 7 195 0.0 0.0 0.00 0.15 0.00 99 1015.6
20260509182705 7 195 0.0 0.0 0.00 0.15 0.00 99 1015.7
20260509182205 7 195 0.0 0.0 0.00 0.15 0.00 99 1015.6
20260509180704 7 194 0.0 0.0 0.00 0.15 0.00 99 1015.7
20260509180205 7 194 0.0 0.0 0.00 0.15 0.00 99 1015.8
20260509175705 7 194 0.0 0.0 0.00 0.15 0.00 99 1015.7
20260509175205 8 194 0.0 0.0 0.00 0.15 0.00 99 1015.8
20260509174704 8 194 0.0 0.0 0.00 0.15 0.00 99 1015.8
20260509174204 7 194 0.0 0.0 0.00 0.15 0.00 99 1015.6
20260509173704 8 193 0.0 0.0 0.00 0.15 0.00 99 1015.8
20260509171204 10 197 0.0 0.0 0.00 0.15 0.00 99 1015.8
20260509170705 10 197 0.0 0.0 0.00 0.15 0.00 99 1015.9
20260509170205 10 196 0.0 0.0 0.00 0.15 0.00 99 1015.8
20260509165704 10 196 0.0 0.0 0.00 0.15 0.00 99 1015.9
20260509164705 11 196 0.0 0.0 0.00 0.15 0.00 99 1015.7
20260509163704 11 196 0.0 0.0 0.00 0.15 0.00 99 1015.9
20260509163205 11 196 0.0 0.0 0.00 0.15 0.00 99 1015.9
20260509162204 11 196 0.0 0.0 0.00 0.15 0.00 98 1016.0
20260509161705 11 196 0.0 0.0 0.00 0.15 0.00 98 1015.9
20260509161205 11 196 0.0 0.0 0.00 0.15 0.00 98 1016.0
20260509160705 11 196 0.0 0.0 0.00 0.15 0.00 98 1016.0
20260509160204 11 196 0.0 0.0 0.00 0.15 0.00 98 1016.0
20260509155704 11 196 0.0 0.0 0.00 0.15 0.00 98 1016.0
20260509155205 11 195 0.0 0.0 0.00 0.15 0.00 98 1016.0
20260509154704 11 195 0.0 0.0 0.00 0.15 0.00 98 1016.1
20260509154205 11 195 0.0 0.0 0.00 0.15 0.00 98 1015.9
20260509153705 11 195 0.0 0.0 0.00 0.15 0.00 98 1016.0
20260509152705 11 195 0.0 0.0 0.00 0.15 0.00 98 1015.9
20260509151706 11 195 0.0 0.0 0.00 0.15 0.00 98 1016.0
20260509150704 11 195 0.0 0.0 0.00 0.15 0.00 98 1016.1
20260509150204 11 195 0.0 0.0 0.00 0.15 0.00 97 1016.0
20260509145704 11 194 0.0 0.0 0.00 0.15 0.00 97 1015.9
20260509145205 11 194 0.0 0.0 0.00 0.15 0.00 97 1016.1
20260509143705 11 194 0.0 0.0 0.00 0.15 0.00 97 1016.2
20260509143204 11 194 0.0 0.0 0.00 0.15 0.00 97 1016.1
20260509142705 11 195 0.0 0.0 0.00 0.15 0.15 97 1016.2
20260509142204 11 195 0.0 0.0 0.00 0.15 0.15 97 1016.3
20260509141705 11 195 0.0 0.0 0.00 0.15 0.15 97 1016.3
20260509141204 11 195 0.0 0.0 0.00 0.15 0.15 97 1016.3
20260509140705 11 194 0.0 0.0 0.00 0.15 0.15 97 1016.1
20260509140204 11 194 0.0 0.0 0.00 0.15 0.15 96 1016.2
20260509135704 11 194 0.0 0.0 0.00 0.15 0.15 96 1016.2
20260509135205 11 194 0.0 0.0 0.00 0.15 0.15 96 1016.2
20260509134704 11 194 0.0 0.0 0.00 0.15 0.15 96 1016.3
20260509134204 11 194 0.0 0.0 0.00 0.15 0.15 96 1016.3
20260509133704 11 194 0.0 0.0 0.00 0.15 0.15 96 1016.3
20260509133204 11 194 0.0 0.0 0.00 0.15 0.15 95 1016.2
20260509132205 11 194 0.0 0.0 0.00 0.15 0.15 95 1016.4
20260509131704 11 194 0.0 0.0 0.00 0.15 0.15 95 1016.4
20260509131204 11 194 0.0 0.0 0.00 0.15 0.15 95 1016.4
20260509130705 12 194 0.0 0.0 0.00 0.15 0.15 95 1016.3
20260509125705 11 193 0.0 0.0 0.00 0.15 0.15 95 1016.4
20260509125204 11 193 0.0 0.0 0.00 0.15 0.15 94 1016.6
20260509124705 11 192 0.0 0.0 0.00 0.15 0.15 94 1016.4
20260509124205 11 192 0.0 0.0 0.00 0.15 0.15 93 1016.6
20260509123704 11 192 0.0 0.0 0.00 0.15 0.15 93 1016.5
20260509123204 11 192 0.0 0.0 0.00 0.15 0.15 93 1016.7
20260509122705 11 192 0.0 0.0 0.00 0.15 0.15 93 1016.5
20260509121704 12 189 0.0 0.0 0.00 0.15 0.15 93 1016.6
20260509121204 12 186 0.0 0.0 0.00 0.15 0.15 93 1016.7
20260509120705 12 194 0.0 0.0 0.00 0.15 0.15 93 1016.4
20260509120204 12 209 0.0 0.0 0.00 0.15 0.15 93 1016.3
20260509115204 11 177 0.0 0.0 0.00 0.15 0.15 93 1016.4
20260509114705 11 177 0.0 0.0 0.00 0.15 0.15 93 1016.4
20260509114205 11 176 0.0 0.0 0.00 0.15 0.15 92 1016.4
20260509113704 11 174 1.6 1.6 0.00 0.15 0.15 92 1016.4
20260509113205 11 171 1.6 1.6 0.00 0.15 0.15 91 1016.6
20260509112705 11 172 1.6 3.2 0.00 0.15 0.15 91 1016.5
20260509112205 11 194 0.0 0.0 0.00 0.15 0.15 90 1016.5
20260509111704 11 200 0.0 0.0 0.00 0.15 0.15 89 1016.4
20260509111205 12 200 0.0 0.0 0.00 0.15 0.15 89 1016.5
20260509110705 12 200 0.0 0.0 0.00 0.15 0.15 88 1016.6
20260509105704 12 201 0.0 0.0 0.00 0.15 0.15 87 1016.4
20260509105205 12 201 0.0 0.0 0.00 0.15 0.15 86 1016.3
20260509104705 12 201 0.0 0.0 0.00 0.15 0.15 85 1016.3
20260509104204 13 201 0.0 0.0 0.00 0.15 0.15 83 1016.3
20260509102705 13 201 0.0 0.0 0.00 0.15 0.15 83 1016.2
20260509102205 13 201 0.0 0.0 0.00 0.15 0.15 84 1016.1
20260509101705 13 201 0.0 0.0 0.00 0.15 0.15 84 1016.2
20260509101205 13 202 0.0 0.0 0.00 0.15 0.15 84 1016.2
20260509100704 13 202 0.0 0.0 0.00 0.15 0.15 84 1016.2
20260509100205 13 201 0.0 0.0 0.00 0.15 0.15 84 1016.1
20260509095205 13 201 0.0 0.0 0.00 0.15 0.15 83 1016.1
20260509094705 13 201 0.0 0.0 0.00 0.15 0.15 83 1016.2
20260509094205 13 201 0.0 0.0 0.00 0.15 0.15 84 1016.2
20260509093204 13 196 0.0 0.0 0.00 0.15 0.15 84 1016.0
20260509092705 13 195 0.0 0.0 0.00 0.15 0.15 84 1016.1
20260509092205 13 195 0.0 0.0 0.00 0.15 0.15 83 1016.0
20260509091705 13 195 0.0 0.0 0.00 0.15 0.15 83 1016.0
20260509091205 13 195 0.0 1.6 0.00 0.15 0.15 82 1015.9
20260509090705 13 181 0.0 0.0 0.00 0.15 0.15 81 1015.8
20260509090204 13 180 0.0 0.0 0.00 0.15 0.15 81 1015.7
20260509085704 13 180 0.0 0.0 0.00 0.15 0.15 81 1015.8
20260509085204 13 180 0.0 0.0 0.00 0.15 0.15 81 1015.7
20260509084705 13 179 0.0 0.0 0.00 0.15 0.15 81 1015.6
20260509084204 13 179 0.0 0.0 0.00 0.15 0.15 81 1015.5
20260509083705 14 176 0.0 1.6 0.00 0.15 0.15 80 1015.5